UAL5956 ZBAD-ZSSS

Flight info

Callsign UAL5956
Flight time N/A
Altitude 35100
Route ELKU4K/11L ELKUR W40 YQG/K0872S1100 W142 DALIM/K0867S1130 A593 DPX A470 DALNU W166 ZJ W167 SASAN SAS71A
Aircraft B764/H-SDE3FGHIM3RWXY/LB1

Departure

Time N/A
Airport Beijing Daxing International Airport (ZBAD)

Arrival

Time 2026-05-07 13:15
Airport Shanghai Hongqiao International Airport (ZSSS)
Time Latitude Longitude Altitude Speed Heading
2026-05-07 12:38 33.48750 118.49344 35243 ft 483 kts 159°
2026-05-07 12:39 33.42916 118.53333 35244 ft 482 kts 159°
2026-05-07 12:39 33.37007 118.57018 35240 ft 483 kts 161°
2026-05-07 12:40 33.30976 118.60638 35235 ft 485 kts 161°
2026-05-07 12:40 33.24896 118.64236 35240 ft 488 kts 161°
2026-05-07 12:41 33.18965 118.68305 35240 ft 498 kts 152°
2026-05-07 12:41 33.13293 118.72988 35231 ft 500 kts 153°
2026-05-07 12:42 33.07539 118.77746 35219 ft 502 kts 152°
2026-05-07 12:42 33.01814 118.82481 35214 ft 504 kts 152°
2026-05-07 12:43 32.96061 118.87236 35208 ft 505 kts 152°
2026-05-07 12:43 32.95088 118.88039 35207 ft 505 kts 152°
2026-05-07 12:44 32.85393 118.96034 35203 ft 508 kts 152°
2026-05-07 12:44 32.78630 119.01650 35197 ft 510 kts 152°
2026-05-07 12:45 32.72845 119.06451 35205 ft 511 kts 151°
2026-05-07 12:45 32.66995 119.11297 35197 ft 513 kts 151°
2026-05-07 12:46 32.61121 119.16155 35207 ft 515 kts 151°
2026-05-07 12:46 32.55259 119.20995 35211 ft 515 kts 151°
2026-05-07 12:47 32.49377 119.25842 35204 ft 517 kts 151°
2026-05-07 12:47 32.43479 119.30698 35200 ft 517 kts 151°
2026-05-07 12:48 32.37557 119.35564 35199 ft 516 kts 151°
2026-05-07 12:48 32.31659 119.40402 35196 ft 518 kts 151°
2026-05-07 12:49 32.25736 119.45253 35211 ft 517 kts 151°
2026-05-07 12:49 32.19851 119.50066 35159 ft 519 kts 151°
2026-05-07 12:50 32.16875 119.52496 34890 ft 518 kts 151°
2026-05-07 12:50 32.13915 119.54913 34646 ft 511 kts 151°
2026-05-07 12:50 32.11035 119.57263 34394 ft 505 kts 151°
2026-05-07 12:50 32.08155 119.59611 34152 ft 501 kts 151°
2026-05-07 12:51 32.05302 119.61932 33916 ft 501 kts 151°
2026-05-07 12:51 32.02419 119.64276 33683 ft 504 kts 151°
2026-05-07 12:51 31.99518 119.66631 33441 ft 509 kts 152°
2026-05-07 12:51 31.96613 119.69085 32940 ft 518 kts 146°
2026-05-07 12:52 31.93975 119.71960 32392 ft 526 kts 137°
2026-05-07 12:52 31.91655 119.75310 31657 ft 533 kts 128°
2026-05-07 12:52 31.89592 119.78919 30868 ft 531 kts 127°
2026-05-07 12:52 31.87543 119.82491 29981 ft 524 kts 127°
2026-05-07 12:53 31.85536 119.85985 29209 ft 517 kts 127°
2026-05-07 12:53 31.83517 119.89494 28448 ft 513 kts 127°
2026-05-07 12:53 31.81549 119.92907 27718 ft 513 kts 127°
2026-05-07 12:53 31.79531 119.96409 26957 ft 511 kts 127°
2026-05-07 12:54 31.77558 119.99828 26222 ft 506 kts 127°
2026-05-07 12:54 31.75595 120.03226 25473 ft 498 kts 127°
2026-05-07 12:54 31.73694 120.06512 24725 ft 488 kts 127°
2026-05-07 12:54 31.71806 120.09778 23972 ft 481 kts 127°
2026-05-07 12:55 31.69934 120.13007 23254 ft 477 kts 127°
2026-05-07 12:55 31.68078 120.16209 22538 ft 471 kts 127°
2026-05-07 12:55 31.66249 120.19359 21848 ft 464 kts 127°
2026-05-07 12:55 31.64461 120.22437 21168 ft 459 kts 127°
2026-05-07 12:56 31.62668 120.25525 20469 ft 452 kts 127°
2026-05-07 12:56 31.60934 120.28503 19785 ft 446 kts 127°
2026-05-07 12:56 31.59312 120.31546 19093 ft 444 kts 118°
2026-05-07 12:56 31.58126 120.34837 18421 ft 437 kts 110°
2026-05-07 12:57 31.57123 120.38161 17733 ft 431 kts 111°
2026-05-07 12:57 31.56125 120.41456 17038 ft 426 kts 110°
2026-05-07 12:57 31.55158 120.44675 16353 ft 419 kts 110°
2026-05-07 12:57 31.54202 120.47873 15669 ft 414 kts 110°
2026-05-07 12:58 31.53254 120.51031 14973 ft 408 kts 110°
2026-05-07 12:58 31.52323 120.54148 14285 ft 403 kts 109°
2026-05-07 12:58 31.51403 120.57220 13642 ft 398 kts 109°
2026-05-07 12:58 31.50504 120.60230 13065 ft 394 kts 109°
2026-05-07 12:59 31.49594 120.63254 12466 ft 389 kts 109°
2026-05-07 12:59 31.48707 120.66220 11860 ft 384 kts 110°
2026-05-07 12:59 31.47828 120.69143 11253 ft 379 kts 109°
2026-05-07 12:59 31.47249 120.71072 10847 ft 379 kts 109°
2026-05-07 13:00 31.46109 120.74860 10205 ft 363 kts 109°
2026-05-07 13:00 31.45292 120.77574 10179 ft 336 kts 109°
2026-05-07 13:00 31.44542 120.80064 10115 ft 314 kts 109°
2026-05-07 13:00 31.44068 120.81634 10055 ft 306 kts 109°
2026-05-07 13:01 31.43139 120.84719 9937 ft 298 kts 109°
2026-05-07 13:01 31.42447 120.87010 9799 ft 302 kts 108°
2026-05-07 13:01 31.41737 120.89359 9579 ft 305 kts 109°
2026-05-07 13:01 31.41043 120.91656 9405 ft 302 kts 108°
2026-05-07 13:02 31.40341 120.93973 9073 ft 300 kts 108°
2026-05-07 13:02 31.39658 120.96224 8950 ft 290 kts 109°
2026-05-07 13:02 31.38987 120.98431 8922 ft 287 kts 109°
2026-05-07 13:02 31.38310 121.00661 8929 ft 293 kts 108°
2026-05-07 13:03 31.37623 121.02922 8929 ft 297 kts 108°
2026-05-07 13:03 31.36932 121.05190 8920 ft 296 kts 108°
2026-05-07 13:03 31.36241 121.07458 8907 ft 294 kts 108°
2026-05-07 13:03 31.35555 121.09707 8923 ft 295 kts 108°
2026-05-07 13:04 31.34861 121.11970 8909 ft 298 kts 109°
2026-05-07 13:04 31.34155 121.14241 8921 ft 297 kts 109°
2026-05-07 13:04 31.33451 121.16509 8915 ft 296 kts 109°
2026-05-07 13:04 31.32733 121.18760 8916 ft 297 kts 115°
2026-05-07 13:05 31.31531 121.20686 8948 ft 296 kts 143°
2026-05-07 13:05 31.29712 121.21849 8740 ft 301 kts 168°
2026-05-07 13:05 31.27657 121.22175 8300 ft 297 kts 178°
2026-05-07 13:05 31.25600 121.22345 7790 ft 294 kts 178°
2026-05-07 13:06 31.23595 121.22495 7320 ft 290 kts 178°
2026-05-07 13:06 31.21603 121.22626 7043 ft 280 kts 178°
2026-05-07 13:06 31.19656 121.22747 6659 ft 284 kts 178°
2026-05-07 13:06 31.17687 121.22860 6172 ft 282 kts 178°
2026-05-07 13:07 31.15729 121.22971 5680 ft 280 kts 178°
2026-05-07 13:07 31.13797 121.23079 5235 ft 277 kts 178°
2026-05-07 13:07 31.11864 121.23186 4862 ft 275 kts 177°
2026-05-07 13:07 31.09922 121.23293 4435 ft 277 kts 177°
2026-05-07 13:08 31.08029 121.23397 3989 ft 276 kts 176°
2026-05-07 13:08 31.06144 121.23501 3847 ft 261 kts 176°
2026-05-07 13:08 31.04383 121.23623 3809 ft 246 kts 167°
2026-05-07 13:08 31.02850 121.24377 3674 ft 238 kts 133°
2026-05-07 13:09 31.01923 121.25915 3443 ft 234 kts 100°
2026-05-07 13:09 31.01687 121.27768 3168 ft 224 kts 88°
2026-05-07 13:09 31.01611 121.29506 3128 ft 210 kts 86°
2026-05-07 13:09 31.01587 121.31178 3087 ft 207 kts 84°
2026-05-07 13:10 31.01784 121.32836 3019 ft 207 kts 58°
2026-05-07 13:10 31.02337 121.33737 2880 ft 206 kts 35°
2026-05-07 13:10 31.04020 121.34457 2555 ft 183 kts
2026-05-07 13:10 31.05218 121.34376 2349 ft 162 kts 360°
2026-05-07 13:11 31.06310 121.34322 1956 ft 151 kts
2026-05-07 13:11 31.07260 121.34272 1858 ft 125 kts
2026-05-07 13:11 31.08119 121.34232 1728 ft 124 kts
2026-05-07 13:11 31.08995 121.34190 1850 ft 128 kts
2026-05-07 13:12 31.09932 121.34146 1799 ft 138 kts
2026-05-07 13:12 31.10883 121.34094 1549 ft 134 kts
2026-05-07 13:12 31.11802 121.34044 1320 ft 128 kts
2026-05-07 13:12 31.12691 121.33999 1131 ft 128 kts
2026-05-07 13:13 31.13596 121.33952 963 ft 131 kts
2026-05-07 13:13 31.14525 121.33904 815 ft 132 kts
2026-05-07 13:13 31.15450 121.33847 606 ft 135 kts
2026-05-07 13:13 31.16387 121.33800 432 ft 135 kts
2026-05-07 13:14 31.17336 121.33756 254 ft 136 kts
2026-05-07 13:14 31.18287 121.33707 67 ft 136 kts
2026-05-07 13:14 31.19165 121.33665 15 ft 101 kts 358°
2026-05-07 13:14 31.19666 121.33637 19 ft 50 kts 356°
2026-05-07 13:15 31.19865 121.33626 21 ft 9 kts 356°
2026-05-07 13:15 31.19937 121.33621 19 ft 14 kts 357°
2026-05-07 13:15 31.20079 121.33612 18 ft 22 kts 356°
2026-05-07 13:15 31.20231 121.33579 18 ft 21 kts 341°
2026-05-07 13:16 31.20362 121.33514 19 ft 18 kts 332°
2026-05-07 13:16 31.20463 121.33446 21 ft 14 kts 325°
2026-05-07 13:16 31.20516 121.33369 21 ft 10 kts 287°
2026-05-07 13:16 31.20521 121.33289 21 ft 10 kts 267°
2026-05-07 13:17 31.20518 121.33204 21 ft 10 kts 268°
2026-05-07 13:17 31.20516 121.33151 21 ft 9 kts 268°
2026-05-07 13:17 31.20513 121.33044 19 ft 9 kts 267°
2026-05-07 13:17 31.20504 121.32965 18 ft 9 kts 248°
2026-05-07 13:18 31.20471 121.32935 19 ft 4 kts 191°
2026-05-07 13:18 31.20437 121.32934 19 ft 6 kts 178°
2026-05-07 13:18 31.20374 121.32937 20 ft 10 kts 177°
2026-05-07 13:18 31.20304 121.32941 20 ft 9 kts 177°
2026-05-07 13:19 31.20239 121.32944 20 ft 8 kts 177°
2026-05-07 13:19 31.20182 121.32947 21 ft 9 kts 176°
2026-05-07 13:19 31.20128 121.32939 21 ft 3 kts 245°
2026-05-07 13:19 31.20131 121.32893 21 ft 8 kts 277°
2026-05-07 13:20 31.20134 121.32824 21 ft 9 kts 269°
2026-05-07 13:20 31.20123 121.32741 19 ft 10 kts 240°
2026-05-07 13:20 31.20075 121.32717 20 ft 6 kts 176°
2026-05-07 13:20 31.20024 121.32719 21 ft 7 kts 178°
2026-05-07 13:21 31.19978 121.32721 21 ft 5 kts 177°
2026-05-07 13:21 31.19974 121.32722 21 ft 0 kts 177°